Flag for United Kingdom Weather past 2 weeks in St Helens, England, United Kingdom

Now
50 °F

Passing clouds.


Feels Like: 48 °F
Forecast: 55 / 59 °F
Wind: 5 mph from South

Location: Liverpool Airport

Current Time: Sep 23, 2014 at 4:05:21 AM

Latest Report: Sep 23, 2014 at 3:20 AM


Visibility: N/A

Pressure: 30.15 "Hg

Humidity: 94%

Dew point: 48 °F

Location of St HelensLocation

Historic Weather in St Helens — Graph

°F

St Helens temperature yesterday

Maximum temperature yesterday: 66 °F (at 2:50 PM)
Minimum temperature yesterday: 46 °F (at 5:20 AM)
Average temperature yesterday: 55 °F

Past Weeks' High & Low Weather Summary

 TemperatureHumidityPressure
High73 °F (Sep 18, 3:20 PM)100% (Sep 10, 4:50 AM)30.36 "Hg (Sep 10, 4:50 AM)
Low46 °F (Sep 22, 5:20 AM)50% (Sep 16, 2:20 PM)29.83 "Hg (Sep 18, 2:20 PM)
Average59 °F80%30.13 "Hg
* Reported Sep 8 2:20 AM — Sep 23 2:50 AM, St Helens, Weather by CustomWeather, © 2014

Note: Actual official high and low records may vary slightly from our data, if they occured in-between our weather recording intervals... More about our weather records

Advertising

St Helens weather history for previous 24 hours

 ConditionsComfort  
Time TempWeatherWind HumidityBarometerVisibility
2:50 AM
Sep 23
52 °FPassing clouds.3 mph88%30.18 "HgN/A
2:20 AM52 °FPassing clouds.5 mph88%30.18 "HgN/A
1:50 AM52 °FPassing clouds.5 mph88%30.18 "HgN/A
1:20 AM54 °FPassing clouds.3 mph82%30.18 "HgN/A
12:50 AM52 °FPassing clouds.5 mph88%30.21 "HgN/A
12:20 AM52 °FClear.3 mph88%30.21 "Hg10 mi
11:50 PM
Sep 22
54 °FClear.2 mph82%30.21 "Hg10 mi
11:20 PM54 °FClear.6 mph77%30.21 "Hg10 mi
10:50 PM54 °FClear.6 mph77%30.21 "Hg10 mi
10:20 PM55 °FClear.6 mph72%30.21 "Hg10 mi
9:50 PM55 °FClear.5 mph82%30.24 "Hg10 mi
9:20 PM55 °FClear.5 mph88%30.24 "Hg10 mi
8:50 PM57 °FClear.5 mph82%30.24 "Hg10 mi
8:20 PM57 °FClear.5 mph77%30.24 "Hg10 mi
7:50 PM59 °FSunny.5 mph72%30.24 "Hg10 mi
7:20 PM59 °FSunny.7 mph68%30.24 "Hg10 mi
6:50 PM61 °FSunny.9 mph63%30.24 "Hg10 mi
6:20 PM63 °FSunny.10 mph59%30.24 "Hg10 mi
5:50 PM63 °FPassing clouds.13 mph64%30.24 "HgN/A
5:20 PM64 °FPassing clouds.12 mph56%30.24 "HgN/A
4:50 PM64 °FPassing clouds.14 mph56%30.24 "HgN/A
4:20 PM64 °FPassing clouds.12 mph60%30.24 "HgN/A
3:50 PM64 °FPassing clouds.12 mph56%30.27 "HgN/A
3:20 PM66 °FPassing clouds.12 mph56%30.27 "HgN/A
2:50 PM66 °FPassing clouds.13 mph60%30.27 "HgN/A
2:20 PM64 °FPassing clouds.13 mph68%30.27 "HgN/A
1:50 PM64 °FPassing clouds.12 mph68%30.27 "HgN/A
1:20 PM64 °FPassing clouds.10 mph64%30.30 "HgN/A
12:50 PM63 °FPassing clouds.10 mph68%30.30 "HgN/A
12:20 PM61 °FPassing clouds.7 mph72%30.30 "HgN/A
11:50 AM63 °FPassing clouds.6 mph68%30.30 "HgN/A
11:20 AM59 °FPassing clouds.2 mph72%30.30 "HgN/A
10:50 AM57 °FPassing clouds.3 mph77%30.30 "Hg5 mi
9:50 AM52 °FPassing clouds.3 mph88%30.30 "Hg4 mi
9:20 AM50 °FPassing clouds.2 mph88%30.30 "Hg4 mi
8:50 AM48 °FPassing clouds.3 mph94%30.30 "Hg4 mi
8:20 AM48 °FFog.3 mph87%30.30 "Hg3 mi
7:50 AM46 °FFog.2 mph93%30.30 "Hg2 mi
7:20 AM46 °FFog.3 mph93%30.30 "Hg2 mi
6:50 AM46 °FClear.3 mph93%30.30 "Hg4 mi
6:20 AM46 °FClear.3 mph93%30.30 "Hg4 mi
5:50 AM46 °FClear.5 mph93%30.30 "Hg4 mi
5:20 AM46 °FClear.5 mph100%30.30 "Hg4 mi
4:50 AM48 °FClear.3 mph94%30.30 "Hg4 mi
4:20 AM48 °FClear.3 mph94%30.33 "Hg4 mi
Weather by CustomWeather, © 2014

See weather overviewHow to use our weather pages